Probability
0 0 0 0 0 0 0 0 0 0 0 0 0 0 0 0 0 0 0 0 0 0 0 0 0 0 0 0 0 0 0 0 0 0 0 0 0 3 3 0 0 0 0 0
0 0 0 0 0 0 0 0 0 0 0 0 0 0 0 0 0 0 0 0 0 0 0 0 0 0 0 0 0 0 0 0 0 0 0 0 0 0 3 3 0 0 0 0
0 0 0 0 0 0 0 0 0 0 0 0 0 0 0 0 0 0 0 0 0 0 0 0 0 0 0 0 0 0 0 0 0 0 0 0 0 0 3 3 3 0 0 0
0 0 0 0 0 0 0 0 0 0 0 0 0 0 0 0 0 0 0 0 0 0 0 0 0 0 0 0 0 0 0 0 0 0 0 0 0 0 0 3 3 0 0 0
0 0 0 0 0 0 0 0 0 0 0 0 0 0 0 0 0 0 0 0 0 0 0 0 0 0 0 0 0 0 0 0 0 0 0 0 0 0 0 3 0 0 0 0
0 0 0 0 0 0 0 0 0 0 0 0 0 0 0 0 0 0 0 0 0 0 0 0 0 0 0 0 0 0 0 0 0 0 0 0 0 0 0 0 0 3 0 0
0 0 0 0 0 0 0 0 0 0 0 0 0 0 0 0 0 0 0 0 0 0 0 0 0 0 0 0 0 0 0 0 0 0 0 0 0 0 0 3 3 3 0 0
0 0 0 0 0 0 0 0 0 0 0 0 0 0 0 0 0 0 0 0 0 0 0 0 0 0 0 0 0 0 0 0 0 0 0 0 0 0 0 3 3 0 0 0
0 0 0 0 0 0 0 0 0 0 0 0 0 0 0 0 0 0 0 0 0 0 0 0 0 0 0 0 0 0 0 0 0 0 0 0 0 0 0 3 3 3 3 0
0 0 0 0 0 0 0 0 0 0 0 0 0 0 0 0 0 0 0 0 0 0 0 0 0 0 0 0 0 0 0 0 0 0 0 0 0 0 0 0 0 0 0 0
0 0 0 0 0 0 0 0 0 0 0 0 0 0 0 0 0 0 0 0 0 0 0 0 0 0 0 0 0 0 0 0 0 0 0 0 0 0 0 0 0 0 0 0
0 0 0 0 0 0 0 0 0 0 0 0 0 0 0 0 0 0 0 0 0 0 0 0 0 0 0 0 0 0 0 0 0 0 0 0 0 0 0 0 0 0 0 0
0 0 0 0 0 0 0 0 0 0 0 0 0 0 0 0 0 0 0 0 0 0 0 0 0 0 0 0 0 0 0 0 0 0 0 0 0 0 0 0 0 0 0 0
0 0 0 0 0 0 0 0 0 0 0 0 0 0 0 0 0 0 0 0 0 0 0 0 0 0 0 0 0 0 0 0 0 0 0 0 0 0 0 0 0 0 0 0
0 0 0 0 0 0 0 0 0 0 0 0 0 0 0 0 0 0 0 0 0 0 0 0 0 0 0 0 0 0 0 0 0 0 0 0 0 0 0 0 0 0 0 0
0 0 0 0 0 0 0 0 0 0 0 0 0 0 0 0 0 0 0 0 0 0 0 0 0 0 0 0 0 0 0 0 0 0 0 0 0 0 0 0 0 0 0 0
0 0 0 0 0 0 0 0 0 0 0 0 0 0 0 0 0 0 0 0 0 0 0 0 0 0 0 0 0 0 0 0 0 0 0 0 0 0 0 0 0 0 0 0
0 0 0 0 0 0 0 0 0 0 0 0 0 0 0 0 0 0 0 0 0 0 0 0 0 0 0 0 0 0 0 0 0 0 0 0 0 0 0 0 0 0 0 0
0 0 0 0 0 0 0 0 0 0 0 0 0 0 0 0 0 0 0 0 0 0 0 0 0 0 0 0 0 0 0 0 0 0 0 0 0 0 0 0 0 0 0 0
0 0 0 0 0 0 0 0 0 0 0 0 0 0 0 0 0 0 0 0 0 0 0 0 0 0 0 0 0 0 0 0 0 0 0 0 0 0 0 0 0 0 0 0
0 0 0 0 0 0 0 0 0 0 0 0 0 0 0 0 0 0 0 0 0 0 0 0 0 0 0 0 0 0 0 0 0 0 0 0 0 0 0 0 0 0 0 0
0 0 0 0 0 0 0 0 0 0 0 0 0 0 0 0 0 0 0 0 0 0 0 0 0 0 0 0 0 0 0 0 0 0 0 0 0 0 0 0 0 0 0 0
0 0 0 0 0 0 0 0 0 0 0 0 0 0 0 0 0 0 0 0 0 0 0 0 0 0 0 0 0 0 0 0 0 0 0 0 0 0 0 0 0 0 0 0
0 0 0 0 0 0 0 0 0 0 0 0 0 0 0 0 0 0 0 0 0 0 0 0 0 0 0 0 0 0 0 0 0 0 0 0 0 0 0 0 0 0 0 0
0 0 0 0 0 0 0 0 0 0 0 0 0 0 0 0 0 0 0 0 0 0 0 0 0 0 0 0 0 0 0 0 0 0 0 0 0 0 0 0 0 0 0 0
0 0 0 0 0 0 0 0 0 0 0 0 0 0 0 0 0 0 0 0 0 0 0 0 0 0 0 0 0 0 0 0 0 0 0 0 0 0 0 0 0 0 0 0
Height
5726 5725 5723 5721 5720 5718 5717 5716 5715 5715 5713 5713 5713 5713 5713 5712 5712 5712 5713 5713 5714 5714 5714 5714 5715 5716 5718 5720 5722 5724 5727 5729 5731 5733 5735 5737 5738 5739 5741 5742 5743 5745 5746 5747
5717 5715 5713 5711 5709 5708 5706 5704 5704 5703 5701 5700 5701 5701 5702 5701 5702 5702 5702 5703 5704 5704 5704 5705 5705 5706 5708 5710 5712 5714 5716 5718 5721 5723 5725 5727 5729 5730 5731 5733 5735 5736 5737 5739
5706 5705 5702 5700 5698 5697 5695 5694 5693 5691 5690 5689 5688 5689 5691 5691 5691 5692 5692 5693 5693 5694 5694 5695 5696 5696 5697 5699 5701 5703 5706 5708 5711 5713 5715 5717 5719 5721 5722 5724 5726 5727 5729 5730
5696 5694 5691 5689 5687 5686 5685 5683 5682 5680 5679 5678 5678 5677 5680 5680 5681 5682 5682 5683 5683 5684 5684 5684 5685 5687 5688 5689 5691 5693 5696 5698 5701 5703 5706 5708 5710 5712 5714 5715 5717 5718 5720 5721
5685 5683 5680 5678 5677 5674 5673 5672 5671 5669 5667 5667 5667 5666 5668 5668 5669 5671 5672 5672 5673 5674 5674 5675 5676 5677 5678 5679 5681 5683 5686 5689 5691 5694 5696 5698 5700 5702 5704 5706 5707 5709 5711 5712
5674 5671 5668 5666 5665 5663 5662 5661 5659 5657 5656 5656 5657 5656 5656 5658 5659 5660 5661 5661 5662 5663 5664 5665 5666 5666 5668 5669 5671 5673 5676 5678 5681 5683 5686 5688 5690 5692 5694 5696 5698 5700 5701 5703
5663 5660 5657 5655 5653 5652 5651 5649 5647 5645 5644 5645 5646 5644 5646 5647 5648 5649 5650 5650 5651 5652 5653 5654 5655 5656 5658 5659 5661 5663 5666 5668 5670 5673 5675 5677 5679 5681 5684 5686 5688 5690 5692 5694
5652 5650 5647 5644 5642 5640 5639 5638 5637 5635 5634 5634 5634 5634 5637 5637 5637 5638 5638 5639 5640 5641 5642 5643 5644 5646 5647 5649 5651 5653 5655 5657 5660 5662 5664 5666 5669 5671 5673 5676 5678 5680 5682 5684
5640 5638 5636 5633 5631 5630 5628 5627 5627 5625 5623 5623 5623 5624 5625 5626 5626 5627 5627 5628 5629 5630 5631 5632 5634 5636 5637 5639 5641 5643 5645 5647 5649 5651 5653 5655 5658 5660 5663 5665 5667 5670 5672 5674
5628 5626 5625 5623 5621 5619 5618 5617 5616 5614 5612 5612 5613 5614 5615 5616 5616 5616 5616 5617 5618 5619 5621 5622 5623 5625 5627 5629 5630 5632 5634 5637 5638 5641 5643 5645 5647 5650 5652 5655 5657 5659 5662 5664
5618 5616 5615 5612 5610 5609 5608 5607 5605 5604 5603 5603 5602 5606 5605 5605 5605 5605 5606 5606 5608 5609 5610 5612 5613 5615 5617 5619 5620 5622 5624 5626 5628 5630 5632 5635 5637 5640 5642 5645 5647 5649 5652 5654
5609 5607 5604 5603 5601 5599 5598 5597 5596 5595 5594 5593 5592 5596 5595 5594 5594 5595 5596 5596 5597 5599 5600 5601 5603 5605 5606 5608 5610 5612 5614 5616 5618 5620 5623 5625 5627 5629 5632 5634 5637 5639 5642 5644
5600 5598 5595 5594 5593 5590 5588 5587 5586 5585 5584 5583 5583 5586 5584 5583 5583 5584 5585 5586 5587 5589 5590 5591 5592 5594 5596 5598 5600 5602 5604 5606 5608 5610 5612 5615 5617 5619 5622 5624 5626 5629 5631 5633
5591 5589 5588 5586 5582 5580 5578 5578 5576 5575 5573 5573 5573 5575 5575 5573 5574 5574 5575 5576 5577 5578 5580 5581 5582 5584 5586 5588 5590 5592 5594 5596 5598 5600 5602 5604 5607 5609 5611 5613 5615 5618 5620 5622
5583 5581 5578 5575 5573 5570 5569 5568 5567 5565 5564 5563 5564 5564 5565 5564 5564 5565 5565 5566 5567 5568 5569 5571 5572 5574 5576 5578 5580 5582 5585 5586 5588 5590 5592 5594 5596 5599 5601 5603 5605 5607 5609 5611
5575 5572 5569 5567 5564 5561 5560 5559 5557 5556 5555 5554 5554 5555 5555 5554 5554 5555 5556 5557 5557 5559 5560 5561 5562 5564 5566 5568 5570 5572 5574 5577 5578 5580 5582 5584 5586 5588 5590 5592 5594 5597 5598 5600
5567 5564 5560 5558 5556 5552 5551 5551 5549 5547 5546 5545 5545 5546 5545 5545 5545 5546 5546 5547 5548 5549 5550 5552 5553 5554 5556 5558 5560 5562 5565 5567 5568 5570 5572 5574 5576 5578 5580 5582 5584 5586 5588 5589
5559 5555 5552 5549 5548 5545 5546 5542 5540 5539 5538 5537 5536 5536 5536 5536 5536 5536 5537 5537 5538 5540 5541 5542 5544 5545 5547 5548 5550 5552 5554 5556 5558 5560 5562 5564 5566 5568 5569 5571 5573 5575 5577 5578
5550 5547 5544 5541 5538 5536 5536 5534 5533 5532 5531 5529 5528 5528 5527 5527 5527 5528 5528 5528 5529 5531 5532 5533 5535 5536 5538 5539 5540 5543 5544 5546 5548 5550 5551 5553 5555 5557 5559 5561 5562 5564 5566 5567
5543 5540 5537 5534 5531 5529 5530 5527 5525 5524 5523 5522 5521 5519 5519 5518 5519 5520 5520 5520 5521 5522 5523 5524 5525 5527 5529 5530 5531 5533 5535 5537 5538 5540 5541 5543 5545 5547 5548 5550 5552 5553 5555 5556
5535 5532 5530 5527 5524 5522 5522 5519 5518 5518 5517 5514 5513 5512 5511 5510 5510 5511 5511 5511 5512 5513 5513 5515 5516 5518 5519 5521 5522 5524 5526 5527 5528 5530 5531 5533 5535 5536 5538 5540 5541 5543 5544 5546
5528 5525 5522 5520 5518 5518 5514 5513 5512 5511 5508 5506 5505 5504 5503 5502 5502 5501 5501 5502 5503 5504 5505 5506 5507 5509 5510 5512 5514 5515 5517 5518 5519 5520 5522 5523 5525 5526 5528 5529 5531 5532 5533 5534
5521 5519 5515 5514 5513 5510 5507 5505 5504 5502 5501 5499 5498 5497 5496 5495 5494 5493 5493 5494 5494 5495 5496 5497 5499 5500 5501 5503 5505 5506 5508 5509 5510 5511 5512 5513 5515 5516 5518 5519 5520 5521 5522 5523
5514 5511 5508 5506 5504 5502 5500 5498 5497 5495 5494 5492 5491 5489 5488 5487 5486 5486 5485 5486 5486 5487 5488 5489 5490 5491 5493 5494 5496 5497 5499 5500 5501 5502 5503 5504 5505 5506 5508 5509 5510 5511 5512 5512
5507 5504 5502 5500 5498 5496 5494 5492 5490 5488 5486 5485 5483 5482 5481 5480 5479 5478 5478 5478 5478 5479 5480 5481 5482 5483 5484 5486 5487 5488 5490 5491 5492 5493 5494 5495 5496 5497 5498 5499 5500 5500 5501 5501
5500 5498 5495 5493 5492 5489 5488 5485 5483 5481 5480 5478 5476 5475 5473 5472 5472 5471 5471 5471 5471 5472 5473 5473 5474 5476 5477 5478 5479 5480 5481 5482 5483 5484 5485 5486 5486 5487 5488 5488 5489 5489 5490 5491
Wind_Speed
33 34 34 35 35 36 38 38 38 39 39 40 40 40 39 39 39 38 37 37 37 37 37 38 38 39 40 39 39 39 39 39 38 38 38 38 37 38 38 37 37 37 37 37
35 35 35 36 36 37 38 38 39 39 40 40 40 40 39 38 38 38 38 38 37 37 37 37 38 38 39 40 40 40 40 40 39 39 38 38 38 38 38 38 37 37 37 37
36 36 36 37 37 38 38 39 39 39 39 40 40 40 38 38 38 38 38 38 37 37 37 38 38 38 39 40 40 40 40 40 40 40 40 39 39 38 38 38 38 37 37 37
37 37 37 38 37 38 39 39 39 39 39 39 38 39 38 37 37 37 37 37 37 37 38 38 38 38 38 39 39 40 40 40 40 40 41 40 40 39 39 38 38 37 38 37
38 37 38 38 37 37 39 39 39 39 39 39 38 39 39 38 37 37 37 37 37 37 37 37 37 38 39 39 40 40 40 40 41 41 41 41 41 41 40 40 39 38 38 37
38 38 38 38 37 37 38 39 39 39 39 39 38 39 39 38 37 37 37 37 37 37 37 37 37 38 39 40 40 40 40 40 41 41 42 42 42 41 41 41 40 40 39 38
38 37 38 37 37 37 37 38 38 39 39 39 38 38 39 37 37 36 36 36 37 37 37 37 37 38 38 39 40 40 40 41 41 41 42 42 42 42 42 41 41 41 40 39
39 38 37 37 37 36 36 36 35 36 37 38 38 39 38 37 37 36 36 37 37 37 36 36 37 37 37 38 39 40 40 40 41 42 42 42 42 42 42 42 42 42 41 40
39 38 36 37 37 36 35 34 34 35 37 37 37 37 38 37 37 36 36 36 36 36 36 36 37 37 37 38 38 38 39 40 40 41 42 42 42 42 43 43 43 43 42 41
38 37 36 35 35 34 34 33 33 34 35 36 36 35 35 34 35 35 36 35 35 35 36 36 36 36 37 38 38 38 39 39 40 40 41 42 42 42 43 43 43 43 42 42
36 36 35 34 33 32 31 31 32 33 34 35 35 35 34 33 34 34 33 33 33 33 34 35 35 36 36 37 37 38 38 38 39 40 40 41 41 42 42 43 43 43 43 42
35 35 34 33 32 32 31 30 30 31 32 33 34 35 34 33 34 34 34 34 33 33 34 34 35 35 35 35 36 37 38 38 38 38 39 40 41 41 41 42 43 43 42 42
34 33 33 32 32 31 31 30 30 31 32 32 33 33 33 34 34 34 34 34 34 33 32 33 34 35 35 35 35 36 37 37 37 38 38 39 39 40 40 41 42 42 42 42
33 33 31 31 30 30 30 29 30 31 31 32 32 32 31 32 33 33 34 34 34 34 33 33 33 34 34 35 35 35 35 36 37 38 39 38 39 39 40 40 41 42 42 42
32 32 31 30 29 30 29 29 29 30 30 31 31 31 32 31 31 32 32 32 32 33 33 33 33 33 33 34 35 35 35 36 37 38 39 39 39 39 39 39 39 40 41 41
31 31 30 29 29 29 29 28 27 28 29 30 30 30 30 31 31 32 31 31 31 31 31 32 33 33 32 33 34 35 36 36 36 36 37 38 38 38 38 39 39 40 40 41
30 29 30 29 28 28 28 26 26 26 27 27 28 29 29 30 30 31 31 31 30 30 31 31 31 31 32 33 33 34 34 35 36 36 36 37 37 38 38 38 38 39 39 40
29 28 29 28 27 27 26 25 26 25 26 27 27 27 28 28 28 29 29 29 29 29 30 31 31 31 31 32 32 33 34 36 36 37 37 37 38 38 38 38 38 38 39 39
28 28 28 27 26 25 23 24 25 25 25 26 26 28 28 28 28 28 28 28 28 29 29 29 30 30 30 31 32 33 34 35 35 36 37 37 36 36 36 37 37 38 38 38
26 26 25 25 24 23 22 22 23 24 25 25 25 26 27 27 28 27 28 28 28 29 30 30 30 29 30 30 31 32 32 33 34 34 35 35 35 35 36 36 36 37 37 38
27 25 24 23 23 22 21 21 22 23 23 23 24 24 25 25 26 27 27 28 28 28 29 30 30 29 30 30 30 30 31 32 33 33 34 34 35 36 36 36 36 36 36 37
26 26 25 24 23 22 21 21 22 22 23 23 23 24 24 25 25 26 27 28 28 28 28 29 29 30 30 30 30 30 31 31 32 32 33 34 35 35 36 36 36 36 36 37
25 24 24 24 23 22 22 22 22 22 23 24 24 24 24 24 24 24 24 25 26 27 27 28 29 30 30 30 31 31 31 31 31 32 32 33 34 34 34 35 35 35 36 36
24 24 24 23 22 22 22 22 22 23 23 24 24 24 24 24 24 24 23 23 23 24 25 26 27 28 29 29 30 30 30 30 30 30 31 31 31 32 32 33 34 34 35 35
24 24 23 22 22 22 22 23 23 24 24 24 24 24 23 23 23 23 23 23 23 23 23 24 25 25 26 27 28 29 29 29 29 29 30 30 31 31 31 32 33 34 35 35
23 22 21 21 21 22 22 22 22 22 22 22 22 23 23 23 23 23 22 23 23 23 24 24 24 25 26 27 28 28 28 29 29 29 30 30 31 31 32 32 33 33 34 34
Wind_Direction
286 285 283 282 280 278 277 275 274 272 270 269 267 267 266 265 264 261 260 260 259 259 258 257 256 255 254 255 255 253 250 250 251 252 252 253 253 253 254 254 254 254 254 254
287 285 285 283 281 279 277 276 275 273 272 271 269 267 265 263 262 262 261 260 259 258 258 258 258 257 256 255 254 252 251 251 250 251 251 251 251 252 253 253 254 255 255 254
288 287 285 283 281 279 277 277 276 275 274 272 271 267 264 262 262 261 260 259 258 258 258 258 257 257 257 256 254 252 251 251 250 251 251 251 251 251 252 253 254 255 255 254
289 288 286 283 281 279 277 277 275 274 273 272 271 269 265 262 261 260 259 259 258 258 257 257 257 257 256 255 253 252 250 250 250 250 250 251 251 251 251 253 254 254 254 254
290 290 288 284 281 279 277 276 274 273 272 271 269 268 266 263 262 260 259 258 258 258 257 257 257 256 256 254 252 251 250 249 249 249 249 250 251 251 251 252 253 255 255 254
291 290 288 284 280 279 278 276 274 271 270 270 269 268 267 265 264 263 261 259 258 257 258 258 257 256 255 253 251 250 249 249 248 248 248 249 250 250 251 251 252 254 254 254
291 290 289 286 280 278 278 276 275 273 271 270 269 268 268 267 266 266 264 261 259 259 258 258 256 255 254 252 250 250 249 249 248 248 248 248 249 249 250 251 252 253 254 255
293 292 290 287 283 280 279 277 275 274 273 272 269 268 268 268 267 266 264 262 261 260 258 257 256 255 253 252 251 249 249 248 248 248 248 248 248 249 249 250 252 252 253 254
295 292 291 289 286 282 280 277 275 272 272 272 271 269 268 267 266 265 263 262 260 259 258 257 255 254 253 252 251 250 248 248 248 248 248 248 248 248 249 249 251 252 253 254
295 293 291 290 286 282 281 278 275 272 272 272 271 269 269 267 266 264 263 262 259 258 258 256 254 253 252 251 251 250 249 248 247 247 248 248 248 248 248 248 250 251 253 254
297 294 292 290 288 284 280 277 274 272 271 270 270 269 268 267 266 265 264 263 260 259 256 254 254 252 251 250 250 250 250 249 249 249 249 249 249 249 249 249 250 251 252 253
299 296 292 290 288 284 280 277 274 272 272 270 269 268 268 268 265 264 263 261 259 257 256 254 253 253 251 251 250 250 251 250 249 249 249 249 249 249 250 249 249 251 252 253
301 299 295 292 289 286 281 277 274 272 270 269 268 268 268 269 265 263 263 262 261 259 256 254 252 251 250 249 250 249 249 249 249 248 248 248 249 250 251 251 250 250 251 252
299 298 296 293 290 285 280 276 273 272 270 268 267 265 265 265 265 264 263 261 260 258 256 254 252 250 250 249 249 249 249 249 249 248 247 247 249 250 251 252 252 251 252 252
298 297 296 292 289 285 281 277 274 271 271 269 268 266 264 264 263 262 261 259 258 257 256 254 252 250 249 249 249 249 249 249 249 248 247 248 249 249 250 251 252 253 253 254
298 296 295 292 290 286 282 279 276 273 270 268 267 267 266 265 262 261 260 258 256 255 254 254 252 250 249 249 249 249 248 249 250 250 250 250 251 251 251 251 252 254 255 255
298 298 296 293 291 287 284 281 277 275 272 270 268 268 267 266 264 263 261 259 257 255 254 254 252 250 249 249 248 247 247 248 248 248 250 252 251 251 252 253 254 254 255 255
300 299 297 294 290 286 284 280 277 275 274 270 269 268 267 266 265 264 262 259 255 255 254 253 252 251 251 250 248 248 247 247 248 248 250 251 251 252 252 254 254 255 255 255
298 299 297 296 291 288 285 281 277 275 274 272 269 268 268 265 264 262 262 260 256 254 253 252 252 252 252 251 249 249 249 248 248 248 250 251 252 252 253 253 255 255 255 256
298 298 295 294 291 288 286 283 280 277 276 275 272 270 269 267 265 262 260 259 257 255 253 252 252 252 252 252 251 250 251 250 249 249 250 251 251 252 253 254 255 256 256 257
297 296 294 292 290 288 286 284 282 279 280 279 276 273 270 268 267 263 259 258 256 254 254 253 252 251 252 252 252 252 252 252 251 251 252 252 252 253 254 255 256 256 256 257
298 296 293 291 288 288 289 286 283 282 281 281 279 277 273 270 268 266 263 260 257 254 254 253 253 252 251 252 252 253 253 252 251 251 253 253 253 254 255 256 257 257 258 258
297 295 292 289 288 287 288 287 285 284 283 282 280 278 276 274 271 268 264 261 258 255 254 253 253 252 251 252 252 252 253 254 254 253 253 253 253 254 255 256 257 259 260 260
300 297 291 290 289 288 288 288 285 285 284 283 282 280 277 276 273 268 263 260 258 257 255 253 252 252 252 252 252 253 254 254 255 254 253 253 253 255 256 257 258 259 260 262
301 298 292 290 290 288 288 288 288 287 284 283 282 280 279 278 275 270 264 260 259 258 256 254 254 252 252 253 253 254 253 253 254 255 256 256 257 257 257 258 259 260 261 262
302 299 294 292 290 289 288 288 289 289 288 286 284 282 279 278 276 272 267 263 261 259 256 256 254 254 255 255 253 253 253 253 254 255 257 259 259 259 259 260 261 262 262 263